Home > Weather > A Coruña > Past weeks

Flag for Spain Past Weather in A Coruña, Spain — Yesterday and Last 2 Weeks

Now
61 °F

Cool.


Feels Like: 61 °F
Forecast: 66 / 74 °F
Wind: 3 mph from East

Location: La Coruna

Current Time: Aug 30, 2016 at 9:29:19 AM

Latest Report: Aug 30, 2016 at 8:00 AM


Visibility: 9 mi

Pressure: 30.14 "Hg

Humidity: 89%

Dew Point: 58 °F

Location of A CoruñaLocation

Past Weather in A Coruña — Graph

°F

A Coruña Temperature Yesterday

Maximum temperature yesterday: 70 °F (at 12:00 PM)
Minimum temperature yesterday: 62 °F (at 8:00 AM)
Average temperature yesterday: 66 °F

High & Low Weather Summary for the Past Weeks

 TemperatureHumidityPressure
High80 °F (Aug 22, 1:00 PM)99% (Aug 15, 8:00 AM)30.33 "Hg (Aug 15, 8:00 AM)
Low59 °F (Aug 21, 8:00 AM)50% (Aug 19, 12:00 AM)29.80 "Hg (Aug 19, 5:00 AM)
Average67 °F81%30.09 "Hg
* Reported Aug 15 8:00 AM — Aug 30 8:00 AM, A Coruña, Weather by CustomWeather, © 2016

Note: Actual official high and low records may vary slightly from our data, if they occured in-between our weather recording intervals... More about our weather records

Advertising

A Coruña Weather History for the Previous 24 Hours

Scroll right to see more
 ConditionsComfort  
Time TempWeatherWind HumidityBarometerVisibility
8:00 AM
Tue, Aug 30
61 °FCool.3 mph89%30.14 "Hg9 mi
7:00 AM62 °FCool.3 mph88%30.14 "Hg9 mi
6:00 AM63 °FMild.7 mph85%30.14 "Hg11 mi
5:00 AM63 °FMild.7 mph84%30.16 "Hg11 mi
4:00 AM63 °FMild.8 mph86%30.17 "Hg10 mi
3:00 AM64 °FMild.7 mph83%30.19 "Hg11 mi
2:00 AM65 °FPassing clouds.12 mph81%30.20 "Hg16 mi
1:00 AM65 °FMild.10 mph81%30.22 "Hg12 mi
12:00 AM65 °FMild.12 mph80%30.24 "Hg12 mi
11:00 PM
Mon, Aug 29
65 °FPassing clouds.9 mph81%30.25 "Hg16 mi
10:00 PM66 °FMild.12 mph78%30.25 "Hg12 mi
9:00 PM67 °FMild.13 mph75%30.24 "Hg12 mi
8:00 PM66 °FMild.15 mph79%30.24 "Hg12 mi
7:00 PM67 °FMild.17 mph79%30.25 "Hg12 mi
6:00 PM67 °FMild.13 mph79%30.26 "Hg11 mi
5:00 PM68 °FMild.12 mph74%30.27 "Hg12 mi
4:00 PM69 °FMild.13 mph70%30.28 "Hg12 mi
3:00 PM69 °FMild.12 mph70%30.30 "Hg12 mi
2:00 PM69 °FScattered clouds.10 mph71%30.31 "Hg16 mi
1:00 PM70 °FMild.9 mph73%30.32 "Hg12 mi
12:00 PM70 °FMild.6 mph74%30.32 "Hg12 mi
11:00 AM69 °FPassing clouds.6 mph74%30.32 "Hg12 mi
10:00 AM66 °FMild.5 mph79%30.32 "Hg12 mi
9:00 AM63 °FMild.3 mph91%30.31 "Hg7 mi
Weather by CustomWeather, © 2016

See weather overviewHow to use our weather pages